{"data":{"norad_id":54148,"intl_designator":"2022-138AM","name":"ONEWEB-0536","alt_names":[],"object_type":"PAYLOAD","status":"ACTIVE","operator":null,"country":"UK","launch_date":"2022-10-22","launch_site_code":"SRILR","launch_vehicle":null,"mission":null,"orbit_class":"UNKNOWN","rcs_meters":null,"size_class":null,"mass_kg":null,"dimensions":null,"purposes":["comms"],"wikipedia_slug":null,"has_3d_model":false,"image_url":null,"decayed_at":null,"tle_current":{"epoch":"2026-09-20T05:14:43.477728Z","epoch_age_seconds":46332,"freshness":"FRESH","line1":"1 54148U 22138AM  26263.21855877 -.00000051  00000+0 -15773-3 0  9993","line2":"2 54148  87.9140 255.4912 0001511 117.2665 242.8622 13.20773468191847","mean_motion":13.20773468,"eccentricity":0.0001511,"inclination_deg":87.914,"raan_deg":255.4912,"arg_perigee_deg":117.2665,"mean_anomaly_deg":242.8622,"bstar":-0.00015773,"rev_number":19184,"period_min":109.02702355011,"perigee_km":1180.6247556583,"apogee_km":1182.9093586644,"semimajor_km":7559.9040571614,"source":"CELESTRAK","updated_at":"2026-09-20T09:00:44.722629Z"}}}